Regional Weather Roundup
Issued by NWS Northern Indiana

Home | Current Version | Previous Version | Text Only | Print | Product List | Glossary Off
Versions: 1 2 3 4 5 6 7 8 9 10 11 12 13 14 15 16 17 18 19 20 21 22 23 24 25 26 27 28 29 30 31 32 33 34 35 36 37 38 39 40 41 42 43 44 45 46 47 48 49 50

000
ASUS43 KIWX 030700
RWRIWX

KIWX WEATHER ROUNDUP
NATIONAL WEATHER SERVICE NORTHERN INDIANA
200 AM EST TUE MAR 03 2015

NOTE: "FAIR" INDICATES FEW OR NO CLOUDS BELOW 12,000 FEET WITH NO
SIGNIFICANT WEATHER AND/OR OBSTRUCTIONS TO VISIBILITY.

* THESE STATIONS ARE NOT UNDER NWS QUALITY CONTROL. THEY ALSO MAY NOT
  REPORT WEATHER SUCH AS PRECIPITATION OR FOG.

INZ001>027-030800-
NORTHERN INDIANA

CITY           SKY/WX    TMP DP  RH WIND       PRES   REMARKS
SOUTH BEND     CLOUDY    26  15  63 SE7       30.26F WCI  18
GOSHEN         CLOUDY    25  16  68 SE7       30.25F WCI  17
MONTICELLO*    CLOUDY    25  16  68 CALM      30.24F
ANGOLA*        CLOUDY    21  16  79 SE5       30.26F WCI  15
FORT WAYNE     CLOUDY    23  15  71 E6        30.28F WCI  16
PERU/GRISSOM   CLOUDY    24  17  75 SE8       30.23F WCI  15

$$
INZ028>050-030800-
CENTRAL INDIANA

CITY           SKY/WX    TMP DP  RH WIND       PRES   REMARKS
LAFAYETTE      CLOUDY    25  16  68 SE5       30.25S WCI  19
KOKOMO*        CLOUDY    25  16  68 SE7       30.24F WCI  17
MUNCIE*        CLOUDY    22  15  75 E5        30.25F WCI  16
INDIANAPOLIS   CLOUDY    26  16  65 SE10      30.21F WCI  16

$$
MIZ043>046-050>051-056>058-064>065-071>073-077>080-030800-
SOUTHWEST LOWER MICHIGAN

CITY           SKY/WX    TMP DP  RH WIND       PRES   REMARKS
BATTLE CREEK   CLOUDY    25  15  66 S8        30.26F WCI  16
BENTON HARBOR  CLOUDY    25  15  66 SE7       30.24F WCI  17
COLDWATER*     CLOUDY    24  15  69 CALM      30.27S
HILLSDALE*     CLOUDY    23  14  70 CALM      30.26F
HOLLAND        CLOUDY    25  15  66 SE6       30.25F WCI  18
GRAND RAPIDS   CLOUDY    24  15  68 S6        30.25F WCI  17
KALAMAZOO      CLOUDY    25  14  63 S5        30.26F WCI  19
STURGIS*       CLOUDY    25  16  68 SE5       30.25F WCI  19
THREE RIVERS*  CLOUDY    25  15  67 SE5       30.27F WCI  19

$$
OHZ001>008-015>018-024>025-030800-
NORTHWEST OHIO

CITY           SKY/WX    TMP DP  RH WIND       PRES   REMARKS
DEFIANCE       CLOUDY    23  14  68 E3        30.30F
FINDLAY        CLOUDY    21  13  71 E5        30.29F WCI  15
TOLEDO EXPRESS CLOUDY    21  13  71 CALM      30.31F
TOLEDO METCALF CLOUDY    22  14  71 S3        30.34F
LIMA           CLOUDY    21  13  71 E6        30.26F WCI  13

$$
AND FOR LAKE MICHIGAN COASTAL AND OPEN LAKE BUOY OBSERVATIONS

STATION/POSITION TEMP    WIND        PRES    VSBY  WAVE
                 AIR SEA DIR/SP/G                  HT/PER
                 (F)     (DEG/KT/KT) (MB)    (MI)  (FT/S)
CALUMET HARBOR    27     140/  6/  8   N/A
MICHIGAN CITY     26     130/  5/  7   N/A
SAINT JOSEPH      26     140/  2/  4 1024.7F

$$
&&


USA.gov is the U.S. government's official web portal to all federal, state and local government web resources and services.